Location: Unspecified
(0.0000°N, 0.0000°E)
Time: 19:19:07
(UTC+00:00)

A-11 Canister half - Visible Passes

Search period start: 24 April 2014 00:00
Search period end: 04 May 2014 00:00
Orbit: 1527 x 1683 km, 47.3° (Epoch: 24 April)

Date Brightness Start Highest point End Pass type
(mag) Time Alt. Az. Time Alt. Az. Time Alt. Az.
24 Apr 10.6 18:12:21 10° NNE 18:16:31 13° NE 18:20:39 10° ENE visible
24 Apr 8.9 20:12:12 10° NNW 20:22:09 72° NE 20:22:13 72° NE visible
24 Apr 11.2 22:19:45 10° W 22:20:34 12° W 22:20:34 12° W visible
25 Apr 9.0 19:50:41 10° NNW 20:00:38 67° NE 20:02:27 58° E visible
25 Apr 10.9 21:57:53 10° W 22:00:48 18° W 22:00:48 18° W visible
26 Apr 9.1 19:29:12 10° NNW 19:39:06 63° NE 19:42:43 42° ESE visible
26 Apr 10.6 21:36:02 10° WNW 21:41:04 24° WSW 21:41:04 24° WSW visible
27 Apr 9.2 19:07:43 10° NNW 19:17:34 59° NE 19:23:01 29° ESE visible
27 Apr 10.3 21:14:13 10° WNW 21:21:22 30° WSW 21:21:22 30° WSW visible
28 Apr 9.3 18:46:15 10° NNW 18:56:01 55° NE 19:03:20 19° ESE visible
28 Apr 10.1 20:52:26 10° WNW 21:00:57 33° SW 21:01:42 32° SW visible
29 Apr 9.4 18:24:47 10° NNW 18:34:29 52° NE 18:43:40 11° ESE visible
29 Apr 10.1 20:30:40 10° WNW 20:39:25 35° SW 20:42:02 31° SSW visible
30 Apr 10.9 05:14:12 10° S 05:20:36 20° SE 05:27:02 10° E visible
30 Apr 9.5 18:03:21 10° NNW 18:12:56 48° NE 18:22:17 10° ESE visible
30 Apr 10.0 20:08:55 10° WNW 20:17:52 38° SW 20:22:22 26° S visible
01 May 10.9 04:53:03 10° S 04:59:03 19° SE 05:05:04 10° E visible
01 May 10.0 19:47:11 10° WNW 19:56:20 41° SW 20:02:41 20° S visible
02 May 10.9 04:31:57 10° S 04:37:30 17° SE 04:43:03 10° E visible
02 May 9.9 19:25:28 10° WNW 19:34:47 44° SW 19:42:59 13° SSE visible
03 May 10.9 04:10:54 10° SSE 04:15:56 16° SE 04:20:59 10° E visible
03 May 9.9 19:03:47 10° WNW 19:13:15 47° SW 19:22:32 10° SSE visible
